Weather History for Waukesha, WI

Change the Weather History Date:

Saturday, November 2, 2013

  Actual Average Record
Temperature  
Mean Temperature 38 °F -  
Max Temperature 42 °F 53 °F 75 °F (1961)
Min Temperature 35 °F 39 °F 12 °F (1951)
Degree Days  
Heating Degree Days 26    
Moisture  
Dew Point 36 °F    
Average Humidity 89    
Maximum Humidity 100    
Minimum Humidity 70    
Precipitation  
Precipitation 0.00 in - - ()
Sea Level Pressure  
Sea Level Pressure 29.92 in    
Wind  
Wind Speed 7 mph (NW)    
Max Wind Speed 12 mph    
Max Gust Speed -    
Visibility 8 miles    
Events      
Averages and records for this station are not official NWS values.
T = Trace of Precipitation, MM = Missing Value Source: NWS Daily Summary

Daily Weather History Graph

Daily Weather History Graph

Search for Another Location

Airport:

Trip Planner

Search our weather history database for the weather conditions in past years. The results will help you decide how hot, cold, wet, or windy it might be!

Date:

Astronomy

Nov. 02, 2013 Rise Set
Actual Time 7:29 AM CDT 5:43 PM CDT
Civil Twilight 6:59 AM CDT 6:12 PM CDT
Nautical Twilight 6:25 AM CDT 6:46 PM CDT
Astronomical Twilight 5:52 AM CDT 7:19 PM CDT
Moon 6:25 AM CDT (11/2) 5:15 PM CDT (11/2)
Length of Visible Light 11h 13m
Length of Day
10h 14m
Waning Crescent, 1% of the Moon is Illuminated
Nov 2
Waning Crescent
Nov 3
New
Nov 9
First Quarter
Nov 17
Full
Nov 25
Last Quarter

Hourly Weather History & Observations

Time (CDT) Temp. Windchill Dew Point Humidity Pressure Visibility Wind Dir Wind Speed Gust Speed Precip Events Conditions
12:15 AM 41.0 °F 35.2 °F 39.2 °F 93% 29.73 in 7.0 mi WNW 9.2 mph - N/A   Overcast
12:35 AM 41.0 °F 35.2 °F 37.4 °F 87% 29.73 in 10.0 mi WNW 9.2 mph - N/A   Overcast
12:55 AM 41.0 °F 36.4 °F 37.4 °F 87% 29.74 in 10.0 mi WNW 6.9 mph - N/A   Overcast
1:15 AM 41.0 °F 35.8 °F 37.4 °F 87% 29.74 in 10.0 mi WNW 8.1 mph - N/A   Overcast
1:35 AM 41.0 °F 35.8 °F 37.4 °F 87% 29.75 in 10.0 mi NW 8.1 mph - N/A   Overcast
1:55 AM 41.0 °F 35.8 °F 37.4 °F 87% 29.75 in 10.0 mi NW 8.1 mph - N/A   Overcast
2:15 AM 41.0 °F 35.8 °F 37.4 °F 87% 29.76 in 10.0 mi WNW 8.1 mph - N/A   Overcast
2:35 AM 41.0 °F 35.8 °F 37.4 °F 87% 29.76 in 10.0 mi WNW 8.1 mph - N/A   Overcast
2:55 AM 41.0 °F 36.4 °F 37.4 °F 87% 29.76 in 7.0 mi WNW 6.9 mph - N/A   Overcast
3:15 AM 41.0 °F 36.4 °F 37.4 °F 87% 29.77 in 7.0 mi WNW 6.9 mph - N/A   Overcast
3:35 AM 39.2 °F 34.2 °F 37.4 °F 93% 29.77 in 7.0 mi WNW 6.9 mph - N/A   Overcast
3:55 AM 39.2 °F 34.2 °F 37.4 °F 93% 29.77 in 7.0 mi WNW 6.9 mph - N/A   Overcast
4:15 AM 41.0 °F 36.4 °F 37.4 °F 87% 29.78 in 7.0 mi WNW 6.9 mph - N/A   Overcast
4:35 AM 41.0 °F 36.4 °F 37.4 °F 87% 29.78 in 7.0 mi WNW 6.9 mph - N/A   Light Drizzle
4:55 AM 39.2 °F 34.2 °F 37.4 °F 93% 29.79 in 5.0 mi WNW 6.9 mph - N/A   Light Drizzle
5:15 AM 39.2 °F 34.2 °F 37.4 °F 93% 29.80 in 5.0 mi WNW 6.9 mph - N/A   Overcast
5:35 AM 39.2 °F 33.6 °F 37.4 °F 93% 29.81 in 5.0 mi WNW 8.1 mph - N/A   Overcast
5:45 AM 39.2 °F 32.5 °F 37.4 °F 93% 29.81 in 5.0 mi West 10.4 mph - N/A   Overcast
6:45 AM 39.2 °F 34.2 °F 39.2 °F 100% 29.83 in 3.0 mi WNW 6.9 mph - N/A   Overcast
7:45 AM 39.2 °F 35.0 °F 39.2 °F 100% 29.86 in 4.0 mi NW 5.8 mph - N/A   Overcast
8:45 AM 39.2 °F 34.2 °F 39.2 °F 100% 29.89 in 5.0 mi WNW 6.9 mph - N/A   Overcast
9:17 AM 39.2 °F 34.2 °F 37.4 °F 93% 29.90 in 7.0 mi WNW 6.9 mph - N/A   Mostly Cloudy
9:45 AM 41.0 °F 36.4 °F 37.4 °F 87% 29.91 in 10.0 mi NW 6.9 mph - N/A   Overcast
10:45 AM 42.8 °F 38.6 °F 37.4 °F 81% 29.93 in 10.0 mi NNW 6.9 mph - N/A   Overcast
12:45 PM 42.8 °F 36.6 °F 33.8 °F 70% 29.96 in 10.0 mi NW 11.5 mph - N/A   Overcast
1:45 PM 42.8 °F 37.5 °F 33.8 °F 70% 29.97 in 10.0 mi NW 9.2 mph - N/A   Overcast
2:45 PM 42.8 °F 37.5 °F 35.6 °F 76% 29.99 in 10.0 mi WNW 9.2 mph - N/A   Overcast
3:45 PM 39.2 °F 34.2 °F 35.6 °F 87% 30.01 in 10.0 mi WNW 6.9 mph - N/A   Overcast
4:45 PM 39.2 °F 33.6 °F 37.4 °F 93% 30.03 in 10.0 mi WNW 8.1 mph - N/A   Overcast
5:45 PM 39.2 °F 35.0 °F 35.6 °F 87% 30.05 in 10.0 mi WNW 5.8 mph - N/A   Overcast
6:45 PM 39.2 °F 34.2 °F 35.6 °F 87% 30.08 in 10.0 mi WNW 6.9 mph - N/A   Overcast
7:45 PM 37.4 °F 32.8 °F 35.6 °F 93% 30.10 in 10.0 mi WNW 5.8 mph - N/A   Overcast
8:45 PM 37.4 °F 34.9 °F 35.6 °F 93% 30.11 in 10.0 mi NW 3.5 mph - N/A   Overcast
9:15 PM 37.4 °F 34.9 °F 35.6 °F 93% 30.12 in 10.0 mi North 3.5 mph - N/A   Overcast
9:35 PM 37.4 °F 32.8 °F 35.6 °F 93% 30.13 in 10.0 mi NNE 5.8 mph - N/A   Overcast
9:55 PM 37.4 °F 34.9 °F 33.8 °F 87% 30.14 in 10.0 mi NNE 3.5 mph - N/A   Overcast
10:15 PM 37.4 °F - 33.8 °F 87% 30.14 in 10.0 mi Calm Calm - N/A   Overcast
10:35 PM 37.4 °F - 33.8 °F 87% 30.14 in 10.0 mi Calm Calm - N/A   Overcast
10:55 PM 37.4 °F - 33.8 °F 87% 30.14 in 10.0 mi Calm Calm - N/A   Overcast
11:15 PM 37.4 °F - 33.8 °F 87% 30.14 in 10.0 mi Calm Calm - N/A   Overcast
11:35 PM 35.6 °F - 33.8 °F 93% 30.15 in 10.0 mi Calm Calm - N/A   Overcast
11:55 PM 37.4 °F - 33.8 °F 87% 30.15 in 10.0 mi Calm Calm - N/A   Overcast